Location: Oberwangen
(47.4286°N, 8.9679°E)
Time: 20:20:00
(UTC+00:00)

FALCON 9 DEB - Pass Details

Date: 26 October 2021
Orbit: 345 x 354 km, 53.0° (Epoch: 28 November)

Event Time Altitude Azimuth Distance (km) Brightness Sun altitude
Rises 17:38:52 0° 211° (SSW) 2,157 7.2 -14.5°
Reaches altitude 10° 17:41:02 10° 198° (SSW) 1,323 5.8 -14.9°
Enters shadow 17:43:28 25° 142° (SE) 760 4.0 -15.3°
